When you browse on this site, cookies collect data to enhance your experience and personalize the content and advertising you see.
Visit our Privacy Policy to learn more. By continuing to use the site, you agree to this use of cookies and data.
  • Em Portugal
  • Lista de países
  • Para 7 dias
  • Temperatura da água
  • Mapa do tempo
  • Widgets de tempo
  • user-avatar
    Iniciar Sessão

    Previsão horária em Calguri

    Hoje, 17 Fevereiro, Segunda-feira

    Tempo Temperatura Precipitação Vento Pressão Humidade
    00:00 +22°C° 0 mm 8 m/s 729 mmHg 47%
    01:00 +21°C° 0 mm 8 m/s 729 mmHg 46%
    02:00 +20°C° 0 mm 8 m/s 729 mmHg 45%
    03:00 +18°C° 0 mm 8 m/s 730 mmHg 52%
    04:00 +18°C° 0 mm 8 m/s 730 mmHg 59%
    05:00 +17°C° 0 mm 8 m/s 731 mmHg 66%
    06:00 +18°C° 0 mm 7 m/s 731 mmHg 65%
    07:00 +18°C° 0 mm 7 m/s 732 mmHg 65%
    08:00 +20°C° 0 mm 7 m/s 732 mmHg 64%
    09:00 +22°C° 0 mm 7 m/s 732 mmHg 55%
    10:00 +24°C° 0 mm 7 m/s 732 mmHg 45%
    11:00 +28°C° 0 mm 7 m/s 732 mmHg 36%
    12:00 +29°C° 0 mm 7 m/s 732 mmHg 32%
    13:00 +30°C° 0 mm 7 m/s 732 mmHg 29%
    14:00 +32°C° 0 mm 7 m/s 731 mmHg 25%
    15:00 +32°C° 0 mm 7 m/s 731 mmHg 25%
    16:00 +32°C° 0 mm 7 m/s 731 mmHg 24%
    17:00 +32°C° 0 mm 7 m/s 731 mmHg 23%
    18:00 +31°C° 0 mm 8 m/s 731 mmHg 26%
    19:00 +29°C° 0 mm 8 m/s 732 mmHg 28%
    20:00 +27°C° 0 mm 9 m/s 732 mmHg 30%
    21:00 +24°C° 0 mm 9 m/s 733 mmHg 38%
    22:00 +22°C° 0 mm 9 m/s 733 mmHg 47%
    23:00 +18°C° 0 mm 10 m/s 733 mmHg 55%

    Amanhã, 18 Fevereiro, Terça-feira

    Tempo Temperatura Precipitação Vento Pressão Humidade
    00:00 +17°C° 0 mm 9 m/s 733 mmHg 59%
    01:00 +16°C° 0 mm 9 m/s 733 mmHg 63%
    02:00 +15°C° 0 mm 8 m/s 733 mmHg 67%
    03:00 +15°C° 0 mm 8 m/s 734 mmHg 69%
    04:00 +15°C° 0 mm 8 m/s 734 mmHg 70%
    05:00 +13°C° 0 mm 8 m/s 734 mmHg 72%
    06:00 +15°C° 0 mm 8 m/s 734 mmHg 69%
    07:00 +16°C° 0 mm 7 m/s 734 mmHg 65%
    08:00 +16°C° 0 mm 7 m/s 734 mmHg 62%
    09:00 +20°C° 0 mm 7 m/s 734 mmHg 53%
    10:00 +22°C° 0 mm 7 m/s 734 mmHg 44%
    11:00 +24°C° 0 mm 7 m/s 733 mmHg 35%
    12:00 +27°C° 0 mm 7 m/s 733 mmHg 31%
    13:00 +28°C° 0 mm 6 m/s 732 mmHg 27%
    14:00 +30°C° 0 mm 6 m/s 731 mmHg 22%
    15:00 +30°C° 0 mm 6 m/s 731 mmHg 22%
    16:00 +30°C° 0 mm 6 m/s 731 mmHg 21%
    17:00 +30°C° 0 mm 6 m/s 731 mmHg 20%
    18:00 +29°C° 0 mm 5 m/s 731 mmHg 21%
    19:00 +28°C° 0 mm 5 m/s 731 mmHg 23%
    20:00 +27°C° 0 mm 5 m/s 731 mmHg 24%
    21:00 +26°C° 0 mm 7 m/s 731 mmHg 27%
    22:00 +24°C° 0 mm 8 m/s 731 mmHg 31%
    23:00 +23°C° 0 mm 9 m/s 731 mmHg 34%

    Depois de amanhã, 19 Fevereiro, Quarta-feira

    Tempo Temperatura Precipitação Vento Pressão Humidade
    00:00 +21°C° 0 mm 9 m/s 731 mmHg 43%
    01:00 +19°C° 0 mm 9 m/s 731 mmHg 52%
    02:00 +17°C° 0 mm 8 m/s 730 mmHg 60%
    03:00 +17°C° 0 mm 8 m/s 731 mmHg 61%
    04:00 +16°C° 0 mm 7 m/s 731 mmHg 62%
    05:00 +16°C° 0 mm 6 m/s 731 mmHg 63%
    06:00 +17°C° 0 mm 6 m/s 732 mmHg 60%
    07:00 +17°C° 0 mm 6 m/s 732 mmHg 58%
    08:00 +19°C° 0 mm 5 m/s 732 mmHg 55%
    09:00 +21°C° 0 mm 6 m/s 732 mmHg 49%
    10:00 +23°C° 0 mm 6 m/s 732 mmHg 42%
    11:00 +26°C° 0 mm 6 m/s 732 mmHg 35%
    12:00 +27°C° 0 mm 5 m/s 731 mmHg 32%
    13:00 +28°C° 0 mm 5 m/s 730 mmHg 29%
    14:00 +29°C° 0 mm 5 m/s 730 mmHg 26%
    15:00 +29°C° 0 mm 5 m/s 730 mmHg 25%
    16:00 +30°C° 0 mm 5 m/s 729 mmHg 24%
    17:00 +30°C° 0 mm 5 m/s 729 mmHg 23%
    18:00 +29°C° 0 mm 5 m/s 729 mmHg 26%
    19:00 +28°C° 0 mm 5 m/s 730 mmHg 28%
    20:00 +26°C° 0 mm 5 m/s 730 mmHg 31%
    21:00 +26°C° 0 mm 5 m/s 730 mmHg 35%
    22:00 +25°C° 0 mm 4 m/s 730 mmHg 38%
    23:00 +24°C° 0 mm 3 m/s 730 mmHg 42%

    20 Fevereiro, Quinta-feira

    Tempo Temperatura Precipitação Vento Pressão Humidade
    00:00 +22°C° 0 mm 4 m/s 730 mmHg 46%
    01:00 +21°C° 0 mm 5 m/s 730 mmHg 50%
    02:00 +20°C° 0 mm 6 m/s 729 mmHg 54%
    03:00 +19°C° 0 mm 5 m/s 730 mmHg 57%
    04:00 +17°C° 0 mm 5 m/s 730 mmHg 61%
    05:00 +17°C° 0 mm 5 m/s 730 mmHg 65%
    06:00 +19°C° 0 mm 5 m/s 731 mmHg 62%
    07:00 +19°C° 0 mm 5 m/s 731 mmHg 59%
    08:00 +20°C° 0 mm 5 m/s 732 mmHg 57%
    09:00 +22°C° 0 mm 5 m/s 732 mmHg 48%
    10:00 +25°C° 0 mm 5 m/s 732 mmHg 40%
    11:00 +27°C° 0 mm 5 m/s 732 mmHg 32%
    12:00 +28°C° 0 mm 5 m/s 731 mmHg 29%
    13:00 +29°C° 0 mm 5 m/s 730 mmHg 26%
    14:00 +29°C° 0 mm 5 m/s 730 mmHg 23%
    15:00 +29°C° 0 mm 5 m/s 730 mmHg 23%
    16:00 +29°C° 0 mm 5 m/s 730 mmHg 23%
    17:00 +29°C° 0 mm 5 m/s 729 mmHg 23%
    18:00 +29°C° 0 mm 5 m/s 730 mmHg 24%
    19:00 +28°C° 0 mm 5 m/s 730 mmHg 26%
    20:00 +27°C° 0 mm 5 m/s 730 mmHg 28%
    21:00 +26°C° 0 mm 6 m/s 731 mmHg 33%
    22:00 +24°C° 0 mm 8 m/s 731 mmHg 38%
    23:00 +23°C° 0 mm 9 m/s 731 mmHg 43%

    21 Fevereiro, Sexta-feira

    Tempo Temperatura Precipitação Vento Pressão Humidade
    00:00 +22°C° 0 mm 8 m/s 731 mmHg 49%
    01:00 +20°C° 0 mm 7 m/s 731 mmHg 56%
    02:00 +19°C° 0 mm 6 m/s 730 mmHg 62%
    03:00 +19°C° 0 mm 6 m/s 730 mmHg 63%
    04:00 +19°C° 0 mm 6 m/s 731 mmHg 64%
    05:00 +17°C° 0 mm 5 m/s 731 mmHg 64%
    06:00 +19°C° 0 mm 6 m/s 731 mmHg 62%
    07:00 +20°C° 0 mm 6 m/s 732 mmHg 61%
    08:00 +20°C° 0 mm 6 m/s 732 mmHg 59%
    09:00 +22°C° 0 mm 6 m/s 732 mmHg 54%
    10:00 +23°C° 0 mm 6 m/s 732 mmHg 50%
    11:00 +24°C° 0 mm 6 m/s 732 mmHg 45%
    12:00 +23°C° 0 mm 6 m/s 731 mmHg 49%
    13:00 +23°C° 0 mm 7 m/s 731 mmHg 53%
    14:00 +22°C° 0 mm 7 m/s 730 mmHg 57%
    21:00 +30°C° 0 mm 4 m/s 728 mmHg 32%
    22:00 +21°C° 0 mm 4 m/s 730 mmHg 63%
    23:00 +20°C° 0 mm 4 m/s 730 mmHg 65%

    22 Fevereiro, Sábado

    Tempo Temperatura Precipitação Vento Pressão Humidade
    00:00 +20°C° 0 mm 4 m/s 730 mmHg 66%
    01:00 +20°C° 0 mm 4 m/s 729 mmHg 67%
    02:00 +19°C° 0 mm 3 m/s 729 mmHg 68%
    03:00 +19°C° 0 mm 3 m/s 729 mmHg 68%
    04:00 +19°C° 0 mm 4 m/s 729 mmHg 68%
    05:00 +18°C° 0 mm 4 m/s 729 mmHg 69%
    06:00 +19°C° 0 mm 4 m/s 730 mmHg 65%
    07:00 +20°C° 0 mm 4 m/s 730 mmHg 62%
    08:00 +21°C° 0 mm 5 m/s 731 mmHg 59%
    09:00 +23°C° 0 mm 4 m/s 730 mmHg 53%
    10:00 +26°C° 0 mm 4 m/s 730 mmHg 48%
    11:00 +28°C° 0 mm 3 m/s 729 mmHg 43%
    12:00 +29°C° 0 mm 3 m/s 729 mmHg 39%
    13:00 +30°C° 0 mm 3 m/s 728 mmHg 36%
    14:00 +31°C° 0 mm 3 m/s 728 mmHg 33%
    15:00 +31°C° 0 mm 3 m/s 727 mmHg 35%
    16:00 +30°C° 0 mm 3 m/s 727 mmHg 37%
    17:00 +29°C° 0 mm 3 m/s 727 mmHg 40%
    18:00 +29°C° 0 mm 3 m/s 727 mmHg 42%
    19:00 +28°C° 0 mm 3 m/s 727 mmHg 44%
    20:00 +27°C° 0 mm 4 m/s 727 mmHg 45%
    21:00 +27°C° 0 mm 4 m/s 727 mmHg 47%
    22:00 +27°C° 0 mm 3 m/s 727 mmHg 48%
    23:00 +26°C° 0 mm 3 m/s 726 mmHg 49%
    Mostrar mais